Regional Weather Roundup
Issued by NWS Sterling, VA

Home | Current Version | Previous Version | Text Only | Print | Product List | Glossary On
Versions: 1 2 3 4 5 6 7 8 9 10 11 12 13 14 15 16 17 18 19 20 21 22 23 24 25 26 27 28
000
ASUS41 KLWX 241311
RWRLWX

REGIONAL WEATHER ROUNDUP
NATIONAL WEATHER SERVICE BALTIMORE MD/WASHINGTON DC
900 AM EDT TUE APR 24 2018

Note: "FAIR" indicates few or no clouds below 12,000 feet
with no significant weather and/or obstructions to visibility.
 TC=TEMPERATURE CELSIUS

 * =Non NWS site. Station does not report precipitation (e.g. rain,
    snow, etc.), thunder, or fog.

DCZ001-MDZ009-015-VAZ040>042-051-053>054-241400-
WASHINGTON METRO

CITY           SKY/WX    TMP DP  RH WIND       PRES   REMARKS
WASHINGTON NAT CLOUDY    58  44  60 E9G17     30.28F
DULLES         CLOUDY    56  44  64 E9        30.26F
ANDREWS AFB    FAIR      55  43  65 E12       30.26
FT BELVOIR     FAIR      56  44  62 SE3       30.26
QUANTICO       CLOUDY    57  47  69 E7        30.26F
COLLEGE PARK*  FAIR      55  42  62 E6        30.28S
LEESBURG*      CLOUDY    55  45  67 E5        30.28S
MANASSAS*      CLOUDY    56  44  64 E12       30.25F
GAITHERSBURG*  FAIR      54  42  64 E10G17    30.28F

$$

MDZ006>007-011-014-241400-
BALTIMORE METRO

CITY           SKY/WX    TMP DP  RH WIND       PRES   REMARKS
BWI AIRPORT    CLOUDY    55  44  66 E12       30.29F
MD SCIENCE CTR   N/A     56  42  59 MISG      30.31F
MARTIN STATE   CLOUDY    55  46  71 E5        30.33F
ANNAPOLIS      PTSUNNY   58  48  69 SE7       30.29F
FORT MEADE*    FAIR      54  43  66 E8        30.31F

$$

MDZ012-015-019>023-241400-
MARYLAND EASTERN SHORE

CITY           SKY/WX    TMP DP  RH WIND       PRES   REMARKS
OCEAN CITY     FAIR      53  49  86 E12       30.32F
SALISBURY      FAIR      58  48  69 E14       30.29F
BAY BRIDGE AP* FAIR      57  45  62 SE14      30.29F
CAMBRIDGE*     SUNNY     57  46  67 E14       30.28F
EASTON*        CLOUDY    57  45  62 SE9       30.33F

$$

MDZ017>025-241400-
SOUTHERN MARYLAND

CITY           SKY/WX    TMP DP  RH WIND       PRES   REMARKS
PATUXENT RIVER PTSUNNY   58  50  75 E15       30.26F
ST INIGOES     FAIR      58  49  72 E10       30.25F
LEONARDTOWN*   PTSUNNY   55  46  71 E10G16    30.27F

$$

MDZ003>005-241400-
NORTH CENTRAL MARYLAND

CITY           SKY/WX    TMP DP  RH WIND       PRES   REMARKS
FREDERICK*     NOT AVBL
HAGERSTOWN APT CLOUDY    56  41  57 S8        30.26F
WESTMINSTER*   FAIR      54  41  62 SE7       30.28F

$$

MDZ501>502-241400-
WESTERN MARYLAND

CITY           SKY/WX    TMP DP  RH WIND       PRES   REMARKS
OAKLAND*       CLOUDY    39  39 100 SE22G29   30.15S WCI  29
CUMBERLAND*    CLOUDY    48  45  87 CALM      30.29F

$$

VAZ025>031-241400-
SHENANDOAH VALLEY

CITY           SKY/WX    TMP DP  RH WIND       PRES   REMARKS
WINCHESTER*    DRIZZLE   46  45  93 CALM      30.27F
FRONT ROYAL*   CLOUDY    48  46  93 CALM      30.24F
LURAY*         CLOUDY    50  48  93 NE5       30.22F
NEW MARKET*    CLOUDY    50  48  93 N6        30.20F
STAUNTON*      LGT RAIN  50  47  92 CALM      30.20F
WAYNESBORO*    CLOUDY    49  48  98 E6        30.19S

$$

WVZ021-048>050-054>055-241400-
EASTERN WEST VIRGINIA PANHANDLE

CITY           SKY/WX    TMP DP  RH WIND       PRES   REMARKS
MARTINSBURG    CLOUDY    51  44  77 CALM      30.25F
PETERSBURG*    LGT RAIN  47  46  93 CALM      30.21F

$$

VAZ036>039-050-241400-
CENTRAL FOOTHILLS

CITY           SKY/WX    TMP DP  RH WIND       PRES   REMARKS
CHARLOTTESVILL LGT RAIN  51  48  89 NE9       30.21F FOG
CULPEPER*      RAIN      56  45  67 CALM      30.25F
ORANGE*        DRIZZLE   50  48  93 CALM      30.23F
GORDONSVILLE*  CLOUDY    51  50  99 NE7       30.21F
WARRENTON*     CLOUDY    56  42  59 E3        30.24F

$$

VAZ055>057-241400-
NORTH AND CENTRAL PIEDMONT

CITY           SKY/WX    TMP DP  RH WIND       PRES   REMARKS
FREDERICKSBRG* CLOUDY    57  49  76 E7        30.23F
STAFFORD*      CLOUDY    57  47  69 E8        30.28F

$$

NCZ024-NYZ072-PAZ021-071-VAZ022-071-241400-
OTHER REGIONAL OBSERVATIONS

CITY           SKY/WX    TMP DP  RH WIND       PRES   REMARKS
NEW YORK CITY  FAIR      56  39  53 VRB3      30.43S
PHILADELPHIA   PTSUNNY   56  39  53 SE12      30.36F
PITTSBURGH     LGT RAIN  49  44  83 E8        30.15F
ROANOKE        RAIN      52  49  89 E12G25    30.11F FOG
RICHMOND       LGT RAIN  55  55 100 E10       30.19F FOG
RALEIGH        LGT RAIN  59  58  96 E18G24    29.99F

$$

ANZ530>537-241400-
MARINE OBSERVATIONS

STATION/POSITION TIME  TEMP    WIND        PRES
                       AIR SEA DIR/SP/G
                 (UTC) (F)     (DEG/KT/KT) (MB)
THOMAS PT LIGHT  1200   54 53  100/ 17/ 18 1026.6F
BALT KEY BRIDGE  1242   54     110/ 10/ 13 1026.2F
COVE POINT       1242   55     130/ 19/ 24 1025.5F
LEWISETTA        1242   54 54  120/ 10/ 11 1024.3F
SOLOMONS ISLAND  1242   54 53   90/ 12/ 14 1024.5F
PINEY POINT      1242          120/ 16/ 19   N/A

$$





USA.gov is the U.S. government's official web portal to all federal, state and local government web resources and services.